Location: Katowice
(50.2611°N, 19.0242°E)
Time: 03:14:52
(UTC+02:00)

A-11 Canister half - Pass Details

Date: 29 July 2019
Orbit: 1526 x 1683 km, 47.3° (Epoch: 19 August)

Event Time Altitude Azimuth Distance (km) Brightness Sun altitude
Rises 17:12:54 0° 188° (S) 4,921 11.8 29.8°
Reaches altitude 10° 17:17:06 10° 173° (S) 3,936 11.2 29.1°
Maximum altitude 17:23:57 21° 130° (SE) 3,139 10.4 28.0°
Drops below altitude 10° 17:30:44 10° 86° (E) 3,910 10.7 26.9°
Sets 17:34:52 0° 72° (ENE) 4,880 11.1 26.3°
